Regional Weather Roundup
Issued by NWS

Home | Current Version | Previous Version | Graphics & Text | Print | Product List | Glossary On
Versions: 1 2 3 4 5 6 7 8 9 10 11 12 13 14 15 16 17 18 19 20 21 22 23 24 25 26 27 28 29 30 31 32 33 34 35 36 37 38 39 40 41 42 43 44 45 46 47 48 49 50
000
ASUS43 KTOP 221959
RWRKS

WEATHER ROUNDUP FOR KANSAS
NATIONAL WEATHER SERVICE GOODLAND KS
200 PM CST MON JAN 22 2018

NOTE:  "FAIR" INDICATES FEW OR NO CLOUDS BELOW 12,000 FEET WITH NO
SIGNIFICANT WEATHER AND/OR OBSTRUCTIONS TO VISIBILITY.

KSZ001>006-013>018-027>032-041>047-222100-
NORTHWEST KANSAS

CITY           SKY/WX    TMP DP  RH WIND       PRES   REMARKS
GOODLAND       MIX PCPN  30  20  66 NW22G32   29.92F WCI  17
HAYS           PTSUNNY   37  27  67 NW30G40   29.79R WCI  24
HILL CITY      PTSUNNY   34  26  72 NW26G43   29.84S WCI  21
RUSSELL        PTSUNNY   36  29  75 NW33G45   29.75R WCI  22
$$

KSZ061>065-074>080-084>089-222100-
SOUTHWEST KANSAS

CITY           SKY/WX    TMP DP  RH WIND       PRES   REMARKS
DODGE CITY     MOSUNNY   43  20  39 NW30G48   29.88R
GARDEN CITY    SUNNY     40  18  41 N35G48    29.93S WCI  28
GREAT BEND     CLOUDY    39  27  62 NW35G46   29.76F WCI  26
LIBERAL        SUNNY     45  16  31 NW31G37   29.96F
$$

KSZ066>073-081>083-090>101-222100-
SOUTHEAST KANSAS

CITY           SKY/WX    TMP DP  RH WIND       PRES   REMARKS
COFFEYVILLE    LGT RAIN  39  33  79 W18G30    29.68R WCI  30
HUTCHINSON     CLOUDY    38  31  76 NW32G45   29.70S WCI  25
MEDICINE LODGE   N/A     48  24  39 NW37G54   29.81F
NEWTON         FLURRIES  35  31  85 NW28G43   29.66R WCI  22
PARSONS        LGT RAIN  39  31  72 W24G33    29.66R WCI  28
WICHITA INTL   CLOUDY    38  31  76 NW31G45   29.72R WCI  25
WICHITA JABRA  CLOUDY    36  31  82 NW28G39   29.70R WCI  23
WICHITA MCCONL CLOUDY    37  30  75 NW25G33   29.69F WCI  26
WINFIELD       CLOUDY    39  29  67 NW25G37   29.75R WCI  28
$$

KSZ007>012-019>026-033>040-048>060-102>105-222100-
NORTHEAST KANSAS

CITY           SKY/WX    TMP DP  RH WIND       PRES   REMARKS
CONCORDIA      LGT SNOW  31  30  96 NW25G43   29.63R VSB 1   WCI  17
EMPORIA        CLOUDY    33  28  81 NW20G33   29.57S WCI  21
LAWRENCE       CLOUDY    36  33  89 W23G32    29.47R WCI  24
MANHATTAN      SNOW      32  29  88 NW12G21   29.58R VSB 1/2 WCI  23
OLATHE IND     LGT SNOW  35  33  92 W18G26    29.46R FOG     WCI  24
OLATHE EXE     CLOUDY    34  33  96 W10G22    29.45R WCI  26
SALINA         LGT SNOW  35  32  88 NW33G41   29.66S FOG     WCI  21
TOPEKA BILLARD CLOUDY    34  31  88 W18G29    29.49R WCI  23
TOPEKA FORBES  CLOUDY    35  31  85 W23G31    29.48R WCI  23
$$




USA.gov is the U.S. government's official web portal to all federal, state and local government web resources and services.